STARLINK-33944, 64209

Orbit data source: Space-Track

STARLINK-33944, 64209 is a payload satellite owned by SpaceX/Seattle (US) in LEO that was launched on Sat, 31 May 2025 UTC via an FALCON 9 launch vehicle from the Air Force Western Test Range (AFWTR). Payload-class satellites include a variety of spacecraft equipped with specific instruments for various scientific and technological missions. These include communications satellites like Starlink; space stations such as the ISS; scientific satellites like the Hubble; Earth observation satellites from companies like Planet Labs, Umbra, and HawkEye 360; GPS; miniature CubeSats for education and research; and military/defense satellites.

Loading next visibility...
Identifier
64209, 2025-117G
Orbit
LEO
Country
Flag of USUS
Related business
Manufacturer
SpaceX/Seattle
Mission
Operational Commercial Communications
Bus & Motor
STARLINK V2MO, Unknown motor
Mass
575 kg wet, ~530 kg dry
Launch date (UTC)
2025-05-31 (1 year ago)
Launch vehicle
FALCON 9
Launch site
Air Force Western Test Range (AFWTR)
Object type
Payload
Rocket body
Debris
Shape & HBR
Box + 1 Pan, 17.7 m
Radar Cross Section
41.120 m², Large (>1 m²)

Expand to show TLE details & history
Last TLE update: 16 hours ago

TLE from 16 hours ago
0 STARLINK-33944
1 64209U 25117G   26228.42110671  .00014764  00000-0  50951-3 0  9994
2 64209  53.1608  17.5095 0000917  69.6279 290.4820 15.30206778 69019
Epoch: 2026-08-16T10:06Z
TLE epoch observation values (Epoch: 2026-08-16T10:06:23.619Z)
Latitude
-0.00005°
Longitude
-98.90683°
Altitude
475.875 km
Speed
7.629 km/s
True Right ascension
01h 10m 02s
True Declination
0° 00' 00"
Sunlit
Object was in full shadow at epoch
Visualization orbit readout
Latitude
Unknown
Longitude
Unknown
Altitude
Unknown
Speed
Unknown
Apparent Right ascension
Unknown
Apparent Declination
Unknown
Sunlit
N/A
Visualization observer readout
Local Sidereal Time
17:01:31
Azimuth
Unknown
Elevation
Unknown
Doppler factor
Unknown
Orbital elements
Apogee altitude
476.08 km
Perigee altitude
474.823 km
Semi-major axis
6,853.588 km
Eccentricity
0.00009
Inclination
53.1608°
RAAN
17.5095°
Arg. of periapsis
69.6279°
True anomaly
290.47216°
Mean anomaly
290.482°
Eccentric anomaly
290.47708°
Mean motion
3.82531 °/min
Orbital period
94.11 mins
BSTAR
0.00050951
Loading maneuver chart data...
Computing Atmospheric mass density...
Loading historical data...
Loading historical data...
Loading historical data...
Loading historical data...
Loading historical data...
Loading historical data...
Loading historical data...

Documentation

Showing up to 5 results
|